COSMOS 252 DEB, 3898

Orbit data source: Space-Track

COSMOS 252 DEB, 3898 is space debris in LEO originally from a launch on Fri, 01 Nov 1968 UTC launched from the Tyuratam Missile And Space Complex (TTMTR). Debris objects in space refer to the collection of defunct objects orbiting the Earth. Examples of debris include non-operational satellites, rocket bodies, and fragments generated from explosions, collisions, or faulty payload assembly.

Loading next visibility...
Identifier
3898, 1968-097BK
Orbit
LEO
Country
Flag of CISCIS
Related business
Manufacturer
Unknown
Mission
Spacecraft
Bus & Motor
Unknown
Mass
Unknown
Launch date (UTC)
1968-11-01 (58 years ago)
Launch vehicle
Unknown
Launch site
Tyuratam Missile And Space Complex (TTMTR)
Object type
Payload
Rocket body
Debris
Shape & HBR
Unknown shape, 0.1 m
Radar Cross Section
Medium (>0.1 m² and <1 m²)

Expand to show TLE details & history
Last TLE update: 14 hours ago

TLE from 14 hours ago
0 COSMOS 252 DEB
1 03898U 68097BK  26174.87871575  .00000915  00000-0  10207-2 0  9993
2 03898  62.2645 351.4595 0763480  80.2425 288.3857 12.90155858674110
Epoch: 2026-06-23T21:05Z
TLE epoch observation values (Epoch: 2026-06-23T21:05:21.040Z)
Latitude
-0.00009°
Longitude
123.07783°
Altitude
1,159.259 km
Speed
7.342 km/s
True Right ascension
23h 25m 50s
True Declination
0° 00' 00"
Sunlit
Object was in daylight at epoch
Visualization orbit readout
Latitude
Unknown
Longitude
Unknown
Altitude
Unknown
Speed
Unknown
Apparent Right ascension
Unknown
Apparent Declination
Unknown
Sunlit
N/A
Visualization observer readout
Local Sidereal Time
22:41:02
Azimuth
Unknown
Elevation
Unknown
Doppler factor
Unknown
Orbital elements
Apogee altitude
1,886.099 km
Perigee altitude
713.694 km
Semi-major axis
7,678.034 km
Eccentricity
0.07635
Inclination
62.2645°
RAAN
351.4595°
Arg. of periapsis
80.2425°
True anomaly
279.85783°
Mean anomaly
288.3857°
Eccentric anomaly
284.14389°
Mean motion
3.22603 °/min
Orbital period
111.59 mins
BSTAR
0.0010207
Loading maneuver chart data...
Computing Atmospheric mass density...
Loading historical data...
Loading historical data...
Loading historical data...
Loading historical data...
Loading historical data...
Loading historical data...
Loading historical data...

Documentation

Showing up to 5 results
|